Flag for U.S.A. Weather past 2 weeks in Lubbock, Texas, U.S.A.

Now
86 °F

Passing clouds.


Feels Like: 87 °F
Forecast: 70 / 91 °F
Wind: 13 mph from Southwest

Location: Lubbock International Airport

Current Time: Aug 2, 2015 at 12:20:17 PM

Latest Report: Aug 2, 2015 at 11:53 AM


Visibility: 9 mi

Pressure: 29.88 "Hg (26.77 "Hg at 976m altitude)

Humidity: 48%

Dew point: 64 °F

Location of LubbockLocation

Historic Weather in Lubbock — Graph

°F

Lubbock temperature yesterday

Maximum temperature yesterday: 89 °F (at 4:53 PM)
Minimum temperature yesterday: 69 °F (at 7:53 AM)
Average temperature yesterday: 77 °F

Past Weeks' High & Low Weather Summary

 TemperatureHumidityPressure
High97 °F (Jul 27, 4:53 PM)93% (Aug 2, 5:53 AM)30.10 "Hg (Aug 2, 5:53 AM)
Low67 °F (Jul 29, 6:53 AM)28% (Jul 25, 4:53 PM)29.73 "Hg (Jul 27, 6:53 PM)
Average82 °F57%29.88 "Hg
* Reported Jul 18 10:53 AM — Aug 2 10:53 AM, Lubbock, Weather by CustomWeather, © 2015

Note: Actual official high and low records may vary slightly from our data, if they occured in-between our weather recording intervals... More about our weather records

Advertising

Lubbock weather history for previous 24 hours

 ConditionsComfort  
Time TempWeatherWind HumidityBarometerVisibility
10:53 AM
Sun, Aug 2
82 °FScattered clouds.8 mph58%29.90 "Hg8 mi
9:53 AM77 °FScattered clouds.3 mph74%29.91 "Hg7 mi
8:53 AM73 °FPassing clouds.6 mph84%29.91 "Hg7 mi
7:53 AM69 °FFog.3 mph93%29.90 "Hg5 mi
6:53 AM68 °FPassing clouds.6 mph93%29.89 "Hg7 mi
5:53 AM68 °FPassing clouds.3 mph93%29.87 "Hg9 mi
4:53 AM68 °FPassing clouds.7 mph90%29.86 "Hg10 mi
3:53 AM68 °FPassing clouds.No wind90%29.89 "Hg10 mi
2:53 AM69 °FMostly cloudy.8 mph87%29.90 "Hg10 mi
1:53 AM74 °FMostly cloudy.6 mph82%29.91 "Hg10 mi
12:53 AM75 °FOvercast.5 mph76%29.91 "Hg10 mi
11:53 PM
Sat, Aug 1
75 °FOvercast.10 mph76%29.90 "Hg10 mi
10:53 PM71 °FThunderstorms. Overcast.10 mph76%29.91 "Hg10 mi
9:53 PM72 °FLight rain. Passing clouds.17 mph71%29.92 "Hg10 mi
8:53 PM75 °FThunderstorms. Broken clouds.15 mph58%29.92 "Hg10 mi
7:53 PM84 °FPartly sunny.16 mph59%29.89 "Hg9 mi
6:53 PM86 °FPassing clouds.16 mph51%29.87 "Hg10 mi
5:53 PM89 °FPassing clouds.13 mph48%29.87 "Hg10 mi
4:53 PM89 °FPassing clouds.17 mph48%29.89 "Hg10 mi
3:53 PM88 °FScattered clouds.10 mph50%29.92 "Hg10 mi
2:53 PM86 °FScattered clouds.14 mph53%29.96 "Hg10 mi
1:53 PM84 °FBroken clouds.12 mph59%29.98 "Hg10 mi
12:53 PM80 °FBroken clouds.14 mph64%30.01 "Hg10 mi
Weather by CustomWeather, © 2015

See weather overviewHow to use our weather pages